Regional Weather Roundup
Issued by NWS

Home | Current Version | Previous Version | Graphics & Text | Print | Product List | Glossary On
Versions: 1 2 3 4 5 6 7 8 9 10 11 12 13 14 15 16 17 18 19 20 21 22 23 24 25 26 27 28 29 30 31 32 33 34 35 36 37 38 39 40 41 42 43 44 45 46 47 48 49 50
000
ASUS43 KLMK 281410
RWRKY
KENTUCKY REGIONAL WEATHER ROUNDUP
NATIONAL WEATHER SERVICE LOUISVILLE KY
1000 AM EDT SUN AUG 28 2016

NOTE "FAIR" INDICATES FEW OR NO CLOUDS BELOW 12,000 FEET
WITH NO SIGNIFICANT WEATHER AND/OR OBSTRUCTIONS TO VISIBILITY.

KYZ001>023-026-027-061>063-070>075-281500-
WESTERN AND SOUTH CENTRAL KENTUCKY

CITY           SKY/WX    TMP DP  RH WIND       PRES   REMARKS
PADUCAH        SUNNY     82  74  76 E5        30.15R
HENDERSON      PTSUNNY   81  75  83 CALM      30.16R
OWENSBORO      SUNNY     83  75  76 SE6       30.18R HX  90
HOPKINSVILLE   SUNNY     78  73  84 VRB2      30.17R
BOWLING GREEN  SUNNY     81  73  76 CALM      30.18S
GLASGOW        SUNNY     79  71  76 CALM      30.19R
$$

KYZ024-025-028>034-038-045-046-053-281500-
NORTH CENTRAL KENTUCKY

CITY           SKY/WX    TMP DP  RH WIND       PRES   REMARKS
LOUISVILLE/SDF MOSUNNY   82  73  74 CALM      30.19R
LOUISVILLE/LOU SUNNY     83  73  72 CALM      30.19S
FORT KNOX      SUNNY     79  73  80 E3        30.19R
$$

KYZ035>037-039>044-047>052-055>060-089>105-281500-
NORTHEAST KENTUCKY

CITY           SKY/WX    TMP DP  RH WIND       PRES   REMARKS
LEXINGTON      MOSUNNY   82  73  74 SE5       30.21S
COVINGTON      MOSUNNY   81  71  71 E6        30.22R
FRANKFORT      SUNNY     81  72  74 CALM      30.19S
$$

KYZ054-064>069-076>088-106>120-281500-
SOUTHEAST KENTUCKY

CITY           SKY/WX    TMP DP  RH WIND       PRES   REMARKS
JACKSON        SUNNY     80  73  79 CALM      30.23S
LONDON         SUNNY     80  69  69 CALM      30.23R
SOMERSET       MOSUNNY   73  68  83 CALM      30.22S
MIDDLESBORO    MOSUNNY   72  70  95 CALM      30.24S
MONTICELLO     MOSUNNY  N/A N/A N/A NE8       30.23R
$$





USA.gov is the U.S. government's official web portal to all federal, state and local government web resources and services.